APJ63 RJBB-VHHH

Flight info

Callsign APJ63
Flight time 3h 33m
Altitude 36000
Route OBLUR Y236 IVROG Y340 RUSUD Y75 IGBOD Y34 HKC Y50 IGMON A1 AIPOM/N0446F380 A1 ELATO V522 ABBEY
Aircraft A21N/M-SDE2E3FGHIRWXY/LB1

Departure

Time 2026-05-07 20:32
Airport Kansai International Airport (RJBB)

Arrival

Time 2026-05-08 00:05
Airport Hong Kong International Airport (VHHH)
Time Latitude Longitude Altitude Speed Heading
2026-05-07 20:11 34.43995 135.23180 34 ft 0 kts 171°
2026-05-07 20:24 34.43992 135.23180 34 ft 1 kts 179°
2026-05-07 20:24 34.43991 135.23161 34 ft 4 kts 319°
2026-05-07 20:25 34.44027 135.23150 34 ft 6 kts 336°
2026-05-07 20:25 34.44076 135.23133 34 ft 8 kts 358°
2026-05-07 20:25 34.44137 135.23116 34 ft 10 kts 308°
2026-05-07 20:25 34.44128 135.23029 34 ft 12 kts 232°
2026-05-07 20:26 34.44078 135.22939 34 ft 14 kts 265°
2026-05-07 20:26 34.44101 135.22825 34 ft 16 kts 241°
2026-05-07 20:26 34.44032 135.22715 34 ft 17 kts 230°
2026-05-07 20:26 34.43954 135.22599 34 ft 18 kts 231°
2026-05-07 20:27 34.43871 135.22473 34 ft 20 kts 231°
2026-05-07 20:27 34.43781 135.22339 34 ft 21 kts 231°
2026-05-07 20:27 34.43686 135.22197 34 ft 22 kts 230°
2026-05-07 20:27 34.43585 135.22047 34 ft 24 kts 231°
2026-05-07 20:28 34.43479 135.21888 34 ft 25 kts 231°
2026-05-07 20:28 34.43367 135.21722 34 ft 26 kts 231°
2026-05-07 20:28 34.43249 135.21547 34 ft 27 kts 231°
2026-05-07 20:28 34.43153 135.21404 34 ft 18 kts 231°
2026-05-07 20:29 34.43073 135.21285 34 ft 14 kts 230°
2026-05-07 20:29 34.43024 135.21214 34 ft 5 kts 231°
2026-05-07 20:29 34.42983 135.21151 34 ft 13 kts 231°
2026-05-07 20:29 34.42924 135.21062 34 ft 15 kts 231°
2026-05-07 20:30 34.42855 135.20961 34 ft 16 kts 231°
2026-05-07 20:30 34.42780 135.20848 34 ft 18 kts 231°
2026-05-07 20:30 34.42781 135.20712 32 ft 19 kts 324°
2026-05-07 20:30 34.42898 135.20678 30 ft 20 kts 52°
2026-05-07 20:31 34.42924 135.20720 30 ft 0 kts 51°
2026-05-07 20:31 34.42979 135.20803 32 ft 42 kts 50°
2026-05-07 20:31 34.43312 135.21298 38 ft 107 kts 51°
2026-05-07 20:31 34.43901 135.22174 37 ft 159 kts 51°
2026-05-07 20:32 34.44662 135.23291 360 ft 171 kts 47°
2026-05-07 20:32 34.45557 135.24202 1016 ft 168 kts 31°
2026-05-07 20:32 34.46630 135.24731 1622 ft 167 kts 11°
2026-05-07 20:32 34.47771 135.24692 2202 ft 167 kts 340°
2026-05-07 20:33 34.48690 135.23730 2493 ft 190 kts 300°
2026-05-07 20:33 34.49065 135.22121 2976 ft 211 kts 270°
2026-05-07 20:33 34.48712 135.20323 3513 ft 233 kts 251°
2026-05-07 20:33 34.48120 135.18394 4019 ft 254 kts 250°
2026-05-07 20:34 34.47501 135.16344 4788 ft 262 kts 250°
2026-05-07 20:34 34.46882 135.14249 5659 ft 266 kts 250°
2026-05-07 20:34 34.46261 135.12117 6540 ft 270 kts 250°
2026-05-07 20:34 34.45636 135.09956 7433 ft 273 kts 250°
2026-05-07 20:35 34.45007 135.07770 8297 ft 277 kts 250°
2026-05-07 20:35 34.44378 135.05581 9133 ft 280 kts 250°
2026-05-07 20:35 34.43735 135.03333 9973 ft 283 kts 250°
2026-05-07 20:35 34.43072 135.01021 10504 ft 300 kts 250°
2026-05-07 20:36 34.42365 134.98556 10950 ft 317 kts 250°
2026-05-07 20:36 34.41632 134.96001 11656 ft 324 kts 250°
2026-05-07 20:36 34.40887 134.93411 12456 ft 328 kts 250°
2026-05-07 20:36 34.40061 134.90825 13267 ft 330 kts 243°
2026-05-07 20:37 34.38947 134.88380 14055 ft 333 kts 239°
2026-05-07 20:37 34.37774 134.85942 14819 ft 336 kts 239°
2026-05-07 20:37 34.36606 134.83514 15555 ft 339 kts 239°
2026-05-07 20:37 34.35418 134.81035 16281 ft 342 kts 239°
2026-05-07 20:38 34.34221 134.78534 16989 ft 345 kts 239°
2026-05-07 20:38 34.33016 134.76009 17678 ft 348 kts 239°
2026-05-07 20:38 34.31804 134.73468 18337 ft 350 kts 239°
2026-05-07 20:38 34.30581 134.70905 18988 ft 353 kts 240°
2026-05-07 20:39 34.29348 134.68319 19589 ft 357 kts 240°
2026-05-07 20:39 34.28021 134.65768 20164 ft 360 kts 233°
2026-05-07 20:39 34.26429 134.63403 20726 ft 364 kts 230°
2026-05-07 20:39 34.24785 134.61058 21280 ft 367 kts 230°
2026-05-07 20:40 34.23126 134.58691 21809 ft 371 kts 230°
2026-05-07 20:40 34.21454 134.56298 22330 ft 374 kts 231°
2026-05-07 20:40 34.19768 134.53882 22827 ft 378 kts 231°
2026-05-07 20:40 34.18071 134.51447 23315 ft 380 kts 231°
2026-05-07 20:41 34.16360 134.48989 23799 ft 383 kts 231°
2026-05-07 20:41 34.14636 134.46514 24253 ft 386 kts 231°
2026-05-07 20:41 34.12900 134.44025 24696 ft 389 kts 231°
2026-05-07 20:41 34.11155 134.41510 25135 ft 392 kts 231°
2026-05-07 20:42 34.09419 134.39012 25559 ft 394 kts 231°
2026-05-07 20:42 34.07651 134.36472 25979 ft 397 kts 231°
2026-05-07 20:42 34.05878 134.33896 26387 ft 399 kts 231°
2026-05-07 20:42 34.04099 134.31302 26774 ft 402 kts 231°
2026-05-07 20:43 34.02311 134.28698 27168 ft 404 kts 231°
2026-05-07 20:43 34.00510 134.26084 27548 ft 407 kts 231°
2026-05-07 20:43 33.98697 134.23450 27927 ft 409 kts 231°
2026-05-07 20:43 33.96872 134.20803 28274 ft 411 kts 231°
2026-05-07 20:44 33.95034 134.18142 28624 ft 414 kts 231°
2026-05-07 20:44 33.93187 134.15472 28987 ft 416 kts 231°
2026-05-07 20:44 33.91333 134.12794 29341 ft 417 kts 231°
2026-05-07 20:44 33.89466 134.10097 29671 ft 419 kts 231°
2026-05-07 20:45 33.87597 134.07401 29994 ft 421 kts 231°
2026-05-07 20:45 33.85716 134.04688 30308 ft 423 kts 231°
2026-05-07 20:45 33.83846 134.01994 30607 ft 425 kts 231°
2026-05-07 20:45 33.81946 133.99258 30903 ft 427 kts 231°
2026-05-07 20:46 33.80032 133.96503 31186 ft 430 kts 231°
2026-05-07 20:46 33.78113 133.93742 31476 ft 431 kts 231°
2026-05-07 20:46 33.76230 133.90925 31746 ft 433 kts 234°
2026-05-07 20:46 33.74461 133.87984 31986 ft 435 kts 235°
2026-05-07 20:47 33.72700 133.85026 32292 ft 436 kts 235°
2026-05-07 20:47 33.70941 133.82070 32668 ft 434 kts 235°
2026-05-07 20:47 33.69182 133.79124 33012 ft 433 kts 235°
2026-05-07 20:47 33.67424 133.76186 33299 ft 433 kts 235°
2026-05-07 20:48 33.65665 133.73248 33600 ft 433 kts 235°
2026-05-07 20:48 33.63958 133.70276 33897 ft 431 kts 239°
2026-05-07 20:48 33.62484 133.67198 34157 ft 431 kts 241°
2026-05-07 20:48 33.61037 133.64056 34429 ft 430 kts 242°
2026-05-07 20:49 33.59593 133.60912 34698 ft 429 kts 241°
2026-05-07 20:49 33.58146 133.57777 34950 ft 428 kts 241°
2026-05-07 20:49 33.56700 133.54656 35202 ft 427 kts 241°
2026-05-07 20:49 33.55259 133.51549 35426 ft 427 kts 241°
2026-05-07 20:50 33.53815 133.48443 35650 ft 426 kts 241°
2026-05-07 20:50 33.52372 133.45339 35851 ft 425 kts 241°
2026-05-07 20:50 33.50930 133.42241 35984 ft 427 kts 241°
2026-05-07 20:51 33.48030 133.36022 35976 ft 427 kts 241°
2026-05-07 20:51 33.45147 133.29850 35970 ft 427 kts 241°
2026-05-07 20:52 33.42241 133.23638 35968 ft 427 kts 241°
2026-05-07 20:52 33.39340 133.17441 35975 ft 427 kts 241°
2026-05-07 20:53 33.36429 133.11234 35977 ft 427 kts 241°
2026-05-07 20:53 33.33524 133.05049 35978 ft 426 kts 241°
2026-05-07 20:54 33.30612 132.98871 35975 ft 426 kts 241°
2026-05-07 20:54 33.27695 132.92699 35979 ft 426 kts 241°
2026-05-07 20:55 33.24783 132.86533 35984 ft 426 kts 241°
2026-05-07 20:55 33.21868 132.80379 35988 ft 426 kts 241°
2026-05-07 20:56 33.18952 132.74229 35989 ft 425 kts 241°
2026-05-07 20:56 33.15901 132.68233 35992 ft 426 kts 236°
2026-05-07 20:57 33.12495 132.62443 36002 ft 426 kts 236°
2026-05-07 20:57 33.09083 132.56665 36005 ft 426 kts 236°
2026-05-07 20:58 33.05670 132.50889 36004 ft 426 kts 236°
2026-05-07 20:58 33.02259 132.45116 36004 ft 426 kts 236°
2026-05-07 20:59 32.98843 132.39343 36006 ft 426 kts 236°
2026-05-07 20:59 32.95153 132.33809 36010 ft 427 kts 231°
2026-05-07 21:00 32.91343 132.28370 36015 ft 427 kts 231°
2026-05-07 21:00 32.87565 132.22978 36017 ft 427 kts 231°
2026-05-07 21:01 32.83762 132.17556 36017 ft 427 kts 231°
2026-05-07 21:01 32.79953 132.12130 36018 ft 427 kts 231°
2026-05-07 21:02 32.76147 132.06713 36017 ft 427 kts 231°
2026-05-07 21:02 32.72337 132.01303 36017 ft 427 kts 231°
2026-05-07 21:03 32.68518 131.95885 36018 ft 427 kts 231°
2026-05-07 21:03 32.64702 131.90480 36018 ft 427 kts 231°
2026-05-07 21:04 32.60886 131.85083 36017 ft 427 kts 231°
2026-05-07 21:04 32.57073 131.79697 36017 ft 427 kts 231°
2026-05-07 21:05 32.53251 131.74302 36017 ft 427 kts 231°
2026-05-07 21:05 32.49453 131.68953 36025 ft 426 kts 231°
2026-05-07 21:06 32.45643 131.63594 36026 ft 425 kts 231°
2026-05-07 21:06 32.41835 131.58239 36028 ft 425 kts 231°
2026-05-07 21:07 32.38028 131.52897 36029 ft 425 kts 231°
2026-05-07 21:07 32.34220 131.47562 36025 ft 425 kts 231°
2026-05-07 21:08 32.31044 131.43124 36026 ft 425 kts 231°
2026-05-07 21:08 32.26605 131.36920 36027 ft 425 kts 231°
2026-05-07 21:09 32.23404 131.32452 36027 ft 425 kts 231°
2026-05-07 21:09 32.19587 131.27133 36027 ft 425 kts 231°
2026-05-07 21:10 32.15787 131.21842 36029 ft 425 kts 231°
2026-05-07 21:10 32.11959 131.16524 36028 ft 425 kts 231°
2026-05-07 21:11 32.08135 131.11220 36024 ft 424 kts 231°
2026-05-07 21:11 32.02392 131.03270 36028 ft 424 kts 231°
2026-05-07 21:12 31.98561 130.97972 36027 ft 424 kts 231°
2026-05-07 21:12 31.94723 130.92667 36027 ft 426 kts 231°
2026-05-07 21:13 31.90871 130.87348 36027 ft 426 kts 231°
2026-05-07 21:13 31.87021 130.82047 36027 ft 426 kts 231°
2026-05-07 21:14 31.83173 130.76751 36026 ft 426 kts 231°
2026-05-07 21:14 31.79321 130.71461 36035 ft 426 kts 231°
2026-05-07 21:15 31.75468 130.66158 36071 ft 426 kts 231°
2026-05-07 21:15 31.71634 130.60908 36078 ft 426 kts 231°
2026-05-07 21:16 31.67893 130.55516 36079 ft 426 kts 234°
2026-05-07 21:16 31.64284 130.50010 36076 ft 425 kts 234°
2026-05-07 21:17 31.60666 130.44509 36079 ft 425 kts 234°
2026-05-07 21:17 31.57048 130.39014 36078 ft 425 kts 234°
2026-05-07 21:18 31.53432 130.33533 36076 ft 425 kts 234°
2026-05-07 21:18 31.49812 130.28052 36074 ft 425 kts 234°
2026-05-07 21:19 31.46193 130.22585 36077 ft 425 kts 234°
2026-05-07 21:19 31.42569 130.17122 36077 ft 425 kts 234°
2026-05-07 21:20 31.38973 130.11700 36078 ft 425 kts 234°
2026-05-07 21:20 31.35347 130.06242 36076 ft 425 kts 234°
2026-05-07 21:21 31.31722 130.00791 36078 ft 425 kts 234°
2026-05-07 21:21 31.28090 129.95339 36077 ft 425 kts 234°
2026-05-07 21:22 31.24458 129.89895 36077 ft 425 kts 234°
2026-05-07 21:22 31.20818 129.84446 36078 ft 425 kts 234°
2026-05-07 21:23 31.17182 129.79008 36077 ft 424 kts 234°
2026-05-07 21:23 31.13545 129.73579 36082 ft 425 kts 234°
2026-05-07 21:24 31.09903 129.68154 36087 ft 424 kts 234°
2026-05-07 21:24 31.06261 129.62732 36087 ft 424 kts 234°
2026-05-07 21:25 31.02641 129.57348 36087 ft 424 kts 234°
2026-05-07 21:25 30.98996 129.51936 36087 ft 425 kts 234°
2026-05-07 21:26 30.95341 129.46522 36086 ft 424 kts 234°
2026-05-07 21:26 30.91693 129.41125 36087 ft 424 kts 234°
2026-05-07 21:27 30.88045 129.35724 36087 ft 424 kts 234°
2026-05-07 21:27 30.84393 129.30333 36091 ft 424 kts 234°
2026-05-07 21:28 30.80738 129.24945 36096 ft 424 kts 234°
2026-05-07 21:28 30.77090 129.19552 36097 ft 424 kts 235°
2026-05-07 21:29 30.73534 129.14137 36096 ft 423 kts 235°
2026-05-07 21:29 30.69962 129.08698 36098 ft 423 kts 235°
2026-05-07 21:30 30.66383 129.03254 36098 ft 424 kts 235°
2026-05-07 21:30 30.62800 128.97815 36097 ft 424 kts 235°
2026-05-07 21:31 30.59213 128.92379 36099 ft 424 kts 235°
2026-05-07 21:31 30.55625 128.86948 36098 ft 424 kts 235°
2026-05-07 21:32 30.52036 128.81521 36097 ft 424 kts 235°
2026-05-07 21:32 30.48446 128.76102 36098 ft 424 kts 235°
2026-05-07 21:33 30.44847 128.70675 36097 ft 424 kts 235°
2026-05-07 21:33 30.41248 128.65255 36097 ft 424 kts 235°
2026-05-07 21:34 30.37649 128.59843 36097 ft 424 kts 235°
2026-05-07 21:34 30.34069 128.54469 36098 ft 424 kts 235°
2026-05-07 21:35 30.30465 128.49062 36098 ft 424 kts 235°
2026-05-07 21:35 30.26856 128.43659 36098 ft 424 kts 235°
2026-05-07 21:36 30.23246 128.38263 36099 ft 424 kts 235°
2026-05-07 21:36 30.19633 128.32868 36107 ft 424 kts 235°
2026-05-07 21:37 30.16015 128.27473 36110 ft 425 kts 235°
2026-05-07 21:37 30.12394 128.22078 36108 ft 425 kts 235°
2026-05-07 21:38 30.08773 128.16690 36108 ft 425 kts 235°
2026-05-07 21:38 30.05143 128.11299 36106 ft 425 kts 235°
2026-05-07 21:39 30.01512 128.05913 36105 ft 425 kts 235°
2026-05-07 21:39 29.97898 128.00560 36106 ft 425 kts 235°
2026-05-07 21:40 29.94261 127.95181 36106 ft 425 kts 235°
2026-05-07 21:40 29.90627 127.89809 36108 ft 425 kts 235°
2026-05-07 21:41 29.86989 127.84442 36106 ft 425 kts 234°
2026-05-07 21:41 29.83167 127.79224 36108 ft 426 kts 232°
2026-05-07 21:42 29.79304 127.74042 36109 ft 426 kts 232°
2026-05-07 21:42 29.75454 127.68872 36101 ft 425 kts 232°
2026-05-07 21:43 29.71600 127.63702 36098 ft 426 kts 232°
2026-05-07 21:43 29.67760 127.58565 36097 ft 426 kts 232°
2026-05-07 21:44 29.63895 127.53399 36098 ft 426 kts 232°
2026-05-07 21:44 29.60030 127.48236 36112 ft 426 kts 232°
2026-05-07 21:45 29.56278 127.42974 36120 ft 425 kts 234°
2026-05-07 21:45 29.52610 127.37643 36115 ft 425 kts 234°
2026-05-07 21:46 29.48935 127.32322 36123 ft 425 kts 234°
2026-05-07 21:46 29.45250 127.27000 36119 ft 425 kts 234°
2026-05-07 21:47 29.41565 127.21684 36118 ft 425 kts 234°
2026-05-07 21:47 29.37884 127.16376 36116 ft 425 kts 234°
2026-05-07 21:48 29.34220 127.11106 36117 ft 425 kts 234°
2026-05-07 21:48 29.30527 127.05795 36120 ft 425 kts 234°
2026-05-07 21:49 29.26834 127.00495 36120 ft 425 kts 234°
2026-05-07 21:49 29.23148 126.95207 36120 ft 424 kts 234°
2026-05-07 21:50 29.19482 126.89956 36115 ft 424 kts 234°
2026-05-07 21:50 29.15793 126.84678 36121 ft 425 kts 234°
2026-05-07 21:51 29.12085 126.79400 36120 ft 425 kts 234°
2026-05-07 21:51 29.08388 126.74129 36116 ft 425 kts 234°
2026-05-07 21:52 29.04689 126.68860 36122 ft 425 kts 234°
2026-05-07 21:52 29.00986 126.63592 36130 ft 425 kts 234°
2026-05-07 21:53 28.97276 126.58325 36133 ft 425 kts 233°
2026-05-07 21:53 28.93471 126.53152 36123 ft 426 kts 233°
2026-05-07 21:54 28.90290 126.48863 36144 ft 426 kts 233°
2026-05-07 21:54 28.86460 126.43702 36158 ft 426 kts 233°
2026-05-07 21:55 28.82008 126.37700 36156 ft 426 kts 233°
2026-05-07 21:55 28.78173 126.32540 36156 ft 426 kts 232°
2026-05-07 21:56 28.74956 126.28220 36158 ft 427 kts 232°
2026-05-07 21:56 28.71134 126.23091 36156 ft 427 kts 232°
2026-05-07 21:57 28.67293 126.17945 36158 ft 426 kts 232°
2026-05-07 21:57 28.63466 126.12795 36156 ft 426 kts 233°
2026-05-07 21:58 28.59743 126.07553 36157 ft 426 kts 234°
2026-05-07 21:58 28.56026 126.02304 36157 ft 426 kts 234°
2026-05-07 21:59 28.52303 125.97059 36157 ft 426 kts 234°
2026-05-07 21:59 28.48581 125.91821 36156 ft 426 kts 234°
2026-05-07 22:00 28.44855 125.86585 36149 ft 426 kts 234°
2026-05-07 22:00 28.41127 125.81352 36132 ft 426 kts 233°
2026-05-07 22:01 28.37398 125.76123 36134 ft 426 kts 233°
2026-05-07 22:01 28.33665 125.70896 36137 ft 426 kts 233°
2026-05-07 22:02 28.29930 125.65675 36133 ft 426 kts 233°
2026-05-07 22:02 28.26216 125.60490 36135 ft 426 kts 233°
2026-05-07 22:03 28.22477 125.55274 36142 ft 426 kts 233°
2026-05-07 22:03 28.18735 125.50057 36142 ft 426 kts 233°
2026-05-07 22:04 28.14989 125.44845 36141 ft 426 kts 233°
2026-05-07 22:04 28.11239 125.39635 36134 ft 426 kts 233°
2026-05-07 22:05 28.07495 125.34437 36147 ft 426 kts 233°
2026-05-07 22:05 28.03753 125.29245 36147 ft 426 kts 233°
2026-05-07 22:06 28.00004 125.24056 36148 ft 425 kts 233°
2026-05-07 22:06 27.96255 125.18863 36147 ft 427 kts 233°
2026-05-07 22:07 27.92477 125.13654 36147 ft 428 kts 233°
2026-05-07 22:07 27.88702 125.08448 36137 ft 428 kts 233°
2026-05-07 22:08 27.84921 125.03236 36135 ft 429 kts 233°
2026-05-07 22:08 27.81141 124.98030 36143 ft 429 kts 233°
2026-05-07 22:09 27.77381 124.92857 36119 ft 429 kts 233°
2026-05-07 22:09 27.73591 124.87655 36120 ft 429 kts 233°
2026-05-07 22:10 27.69797 124.82454 36120 ft 429 kts 233°
2026-05-07 22:10 27.66001 124.77252 36118 ft 429 kts 233°
2026-05-07 22:11 27.62201 124.72051 36119 ft 429 kts 233°
2026-05-07 22:11 27.58399 124.66855 36117 ft 429 kts 233°
2026-05-07 22:12 27.54627 124.61699 36116 ft 429 kts 233°
2026-05-07 22:12 27.50833 124.56512 36120 ft 428 kts 233°
2026-05-07 22:13 27.47038 124.51339 36111 ft 428 kts 233°
2026-05-07 22:13 27.43242 124.46164 36112 ft 429 kts 233°
2026-05-07 22:14 27.39436 124.40986 36113 ft 429 kts 233°
2026-05-07 22:14 27.35632 124.35814 36116 ft 429 kts 233°
2026-05-07 22:15 27.31824 124.30642 36131 ft 429 kts 233°
2026-05-07 22:15 27.28014 124.25485 36137 ft 429 kts 233°
2026-05-07 22:16 27.24227 124.20355 36136 ft 429 kts 233°
2026-05-07 22:16 27.20415 124.15198 36127 ft 429 kts 233°
2026-05-07 22:17 27.16591 124.10041 36121 ft 429 kts 233°
2026-05-07 22:17 27.12768 124.04885 36124 ft 430 kts 233°
2026-05-07 22:18 27.07021 123.97156 36127 ft 430 kts 232°
2026-05-07 22:19 27.03147 123.92030 36129 ft 431 kts 232°
2026-05-07 22:19 26.99276 123.86903 36131 ft 431 kts 232°
2026-05-07 22:20 26.95411 123.81775 36128 ft 431 kts 232°
2026-05-07 22:20 26.91543 123.76634 36126 ft 431 kts 232°
2026-05-07 22:21 26.87670 123.71511 36130 ft 431 kts 232°
2026-05-07 22:21 26.83793 123.66389 36124 ft 431 kts 232°
2026-05-07 22:22 26.79911 123.61266 36127 ft 431 kts 232°
2026-05-07 22:22 26.76028 123.56147 36127 ft 431 kts 232°
2026-05-07 22:23 26.72144 123.51033 36118 ft 432 kts 232°
2026-05-07 22:23 26.68278 123.45941 36124 ft 432 kts 232°
2026-05-07 22:24 26.64380 123.40822 36126 ft 432 kts 232°
2026-05-07 22:24 26.60485 123.35712 36124 ft 432 kts 232°
2026-05-07 22:25 26.56583 123.30599 36125 ft 432 kts 232°
2026-05-07 22:25 26.52683 123.25491 36117 ft 432 kts 232°
2026-05-07 22:26 26.48774 123.20382 36119 ft 432 kts 232°
2026-05-07 22:26 26.44889 123.15304 36117 ft 433 kts 232°
2026-05-07 22:27 26.40978 123.10199 36121 ft 433 kts 232°
2026-05-07 22:27 26.37062 123.05097 36113 ft 433 kts 232°
2026-05-07 22:28 26.33148 123.00000 36112 ft 433 kts 232°
2026-05-07 22:28 26.29222 122.94907 36119 ft 432 kts 232°
2026-05-07 22:29 26.25307 122.89831 36109 ft 432 kts 232°
2026-05-07 22:29 26.21411 122.84776 36107 ft 432 kts 232°
2026-05-07 22:30 26.17469 122.79662 36106 ft 433 kts 232°
2026-05-07 22:30 26.13569 122.74614 36100 ft 433 kts 232°
2026-05-07 22:31 26.09638 122.69536 36098 ft 433 kts 232°
2026-05-07 22:31 26.05702 122.64457 36098 ft 433 kts 232°
2026-05-07 22:32 26.01767 122.59381 36098 ft 433 kts 232°
2026-05-07 22:32 25.97826 122.54300 36098 ft 435 kts 231°
2026-05-07 22:33 25.93871 122.49216 36092 ft 435 kts 231°
2026-05-07 22:33 25.89906 122.44133 36087 ft 435 kts 231°
2026-05-07 22:34 25.85942 122.39052 36087 ft 435 kts 231°
2026-05-07 22:34 25.82007 122.33995 36087 ft 435 kts 232°
2026-05-07 22:35 25.78039 122.28910 36088 ft 435 kts 231°
2026-05-07 22:35 25.74069 122.23840 36089 ft 435 kts 231°
2026-05-07 22:36 25.70109 122.18768 36088 ft 435 kts 231°
2026-05-07 22:36 25.66156 122.13701 36087 ft 434 kts 231°
2026-05-07 22:37 25.62190 122.08642 36089 ft 435 kts 231°
2026-05-07 22:37 25.58230 122.03580 36088 ft 435 kts 231°
2026-05-07 22:38 25.54268 121.98517 36086 ft 435 kts 231°
2026-05-07 22:38 25.50291 121.93472 36087 ft 435 kts 231°
2026-05-07 22:39 25.46310 121.88426 36085 ft 435 kts 231°
2026-05-07 22:39 25.42330 121.83376 36086 ft 435 kts 231°
2026-05-07 22:40 25.38375 121.78362 36087 ft 435 kts 231°
2026-05-07 22:40 25.34387 121.73314 36088 ft 436 kts 231°
2026-05-07 22:41 25.30387 121.68274 36088 ft 436 kts 231°
2026-05-07 22:41 25.26384 121.63242 36087 ft 436 kts 231°
2026-05-07 22:42 25.22380 121.58194 36086 ft 436 kts 231°
2026-05-07 22:42 25.19055 121.54003 36080 ft 436 kts 231°
2026-05-07 22:43 25.15082 121.48940 36085 ft 436 kts 232°
2026-05-07 22:43 25.11160 121.43820 36086 ft 436 kts 232°
2026-05-07 22:44 25.07234 121.38709 36085 ft 437 kts 232°
2026-05-07 22:44 25.03292 121.33608 36095 ft 436 kts 232°
2026-05-07 22:45 24.99345 121.28525 36103 ft 436 kts 232°
2026-05-07 22:45 24.95401 121.23426 36106 ft 437 kts 232°
2026-05-07 22:46 24.91500 121.18381 36106 ft 437 kts 232°
2026-05-07 22:46 24.87546 121.13277 36109 ft 437 kts 232°
2026-05-07 22:47 24.83599 121.08199 36117 ft 437 kts 232°
2026-05-07 22:47 24.79642 121.03111 36114 ft 437 kts 232°
2026-05-07 22:48 24.75693 120.98026 36117 ft 437 kts 232°
2026-05-07 22:48 24.71737 120.92943 36112 ft 437 kts 232°
2026-05-07 22:49 24.67780 120.87865 36124 ft 437 kts 232°
2026-05-07 22:49 24.63814 120.82780 36127 ft 438 kts 232°
2026-05-07 22:50 24.59847 120.77702 36130 ft 438 kts 232°
2026-05-07 22:50 24.55861 120.72645 36134 ft 438 kts 230°
2026-05-07 22:51 24.51644 120.67793 36136 ft 439 kts 229°
2026-05-07 22:51 24.47404 120.62959 36144 ft 439 kts 229°
2026-05-07 22:52 24.43191 120.58165 36135 ft 439 kts 229°
2026-05-07 22:52 24.38950 120.53336 36143 ft 439 kts 229°
2026-05-07 22:53 24.34713 120.48506 36144 ft 439 kts 229°
2026-05-07 22:53 24.30470 120.43678 36135 ft 439 kts 229°
2026-05-07 22:54 24.26215 120.38857 36138 ft 439 kts 229°
2026-05-07 22:54 24.21975 120.34042 36140 ft 439 kts 229°
2026-05-07 22:55 24.17726 120.29226 36144 ft 439 kts 229°
2026-05-07 22:55 24.13480 120.24418 36132 ft 439 kts 229°
2026-05-07 22:56 24.09230 120.19611 36130 ft 439 kts 229°
2026-05-07 22:56 24.04979 120.14801 36121 ft 440 kts 229°
2026-05-07 22:57 24.00716 120.09998 36118 ft 440 kts 228°
2026-05-07 22:57 23.96483 120.05226 36113 ft 440 kts 228°
2026-05-07 22:58 23.92221 120.00428 36107 ft 440 kts 229°
2026-05-07 22:58 23.87971 119.95621 36099 ft 440 kts 229°
2026-05-07 22:59 23.83708 119.90822 36098 ft 440 kts 228°
2026-05-07 22:59 23.79436 119.86030 36088 ft 440 kts 228°
2026-05-07 23:00 23.75168 119.81239 36089 ft 440 kts 228°
2026-05-07 23:00 23.70897 119.76452 36087 ft 440 kts 228°
2026-05-07 23:01 23.66647 119.71698 36085 ft 440 kts 228°
2026-05-07 23:01 23.62380 119.66923 36080 ft 440 kts 228°
2026-05-07 23:02 23.58424 119.61884 36078 ft 436 kts 239°
2026-05-07 23:02 23.55190 119.56284 36077 ft 436 kts 240°
2026-05-07 23:03 23.51964 119.50679 36078 ft 436 kts 240°
2026-05-07 23:03 23.48725 119.45087 36077 ft 436 kts 240°
2026-05-07 23:04 23.45485 119.39502 36078 ft 436 kts 240°
2026-05-07 23:04 23.42233 119.33911 36077 ft 437 kts 240°
2026-05-07 23:05 23.39001 119.28359 36079 ft 437 kts 240°
2026-05-07 23:05 23.35749 119.22777 36079 ft 437 kts 240°
2026-05-07 23:06 23.32485 119.17192 36078 ft 437 kts 240°
2026-05-07 23:06 23.29226 119.11610 36077 ft 437 kts 240°
2026-05-07 23:07 23.25968 119.06029 36077 ft 437 kts 240°
2026-05-07 23:07 23.22698 119.00450 36077 ft 437 kts 240°
2026-05-07 23:08 23.19433 118.94874 36076 ft 437 kts 240°
2026-05-07 23:08 23.16167 118.89300 36077 ft 437 kts 240°
2026-05-07 23:09 23.12895 118.83721 36077 ft 438 kts 239°
2026-05-07 23:09 23.09633 118.78176 36077 ft 438 kts 239°
2026-05-07 23:10 23.06355 118.72603 36077 ft 438 kts 239°
2026-05-07 23:10 23.03065 118.67035 36077 ft 438 kts 239°
2026-05-07 23:11 22.99776 118.61474 36077 ft 438 kts 239°
2026-05-07 23:11 22.96489 118.55900 36078 ft 438 kts 239°
2026-05-07 23:12 22.93195 118.50335 36077 ft 438 kts 239°
2026-05-07 23:12 22.89884 118.44780 36076 ft 439 kts 239°
2026-05-07 23:13 22.86576 118.39218 36076 ft 439 kts 239°
2026-05-07 23:13 22.83265 118.33661 36076 ft 439 kts 239°
2026-05-07 23:14 22.79950 118.28105 36076 ft 439 kts 239°
2026-05-07 23:14 22.76659 118.22598 36076 ft 439 kts 239°
2026-05-07 23:15 22.73333 118.17027 36081 ft 440 kts 239°
2026-05-07 23:15 22.70008 118.11462 36088 ft 440 kts 239°
2026-05-07 23:16 22.66669 118.05892 36087 ft 440 kts 239°
2026-05-07 23:16 22.63327 118.00336 36086 ft 440 kts 239°
2026-05-07 23:17 22.59983 117.94771 36086 ft 440 kts 239°
2026-05-07 23:17 22.56674 117.89191 36087 ft 440 kts 239°
2026-05-07 23:18 22.53384 117.83649 36087 ft 441 kts 239°
2026-05-07 23:18 22.50063 117.78077 36086 ft 441 kts 239°
2026-05-07 23:19 22.46746 117.72497 36086 ft 441 kts 239°
2026-05-07 23:19 22.43421 117.66918 36086 ft 441 kts 239°
2026-05-07 23:20 22.40092 117.61351 36089 ft 441 kts 239°
2026-05-07 23:20 22.36765 117.55782 36086 ft 441 kts 239°
2026-05-07 23:21 22.33845 117.49994 36084 ft 437 kts 253°
2026-05-07 23:21 22.33228 117.46796 36088 ft 435 kts 266°
2026-05-07 23:21 22.33112 117.43535 36093 ft 434 kts 270°
2026-05-07 23:22 22.33065 117.37020 36087 ft 434 kts 270°
2026-05-07 23:22 22.32972 117.30502 36086 ft 434 kts 270°
2026-05-07 23:23 22.32853 117.23989 36087 ft 434 kts 270°
2026-05-07 23:23 22.32731 117.17519 36086 ft 433 kts 270°
2026-05-07 23:24 22.32605 117.11014 36086 ft 433 kts 270°
2026-05-07 23:24 22.32476 117.04512 36086 ft 433 kts 270°
2026-05-07 23:25 22.32347 116.98011 36085 ft 433 kts 270°
2026-05-07 23:25 22.32216 116.91505 36085 ft 433 kts 270°
2026-05-07 23:26 22.32077 116.84992 36085 ft 433 kts 270°
2026-05-07 23:26 22.31942 116.78480 36085 ft 434 kts 270°
2026-05-07 23:27 22.31732 116.68712 36087 ft 433 kts 270°
2026-05-07 23:27 22.31583 116.62238 36085 ft 434 kts 270°
2026-05-07 23:28 22.31437 116.55721 36085 ft 434 kts 270°
2026-05-07 23:28 22.31287 116.49206 36084 ft 434 kts 270°
2026-05-07 23:29 22.31139 116.42683 36084 ft 435 kts 270°
2026-05-07 23:29 22.30986 116.36156 36084 ft 435 kts 270°
2026-05-07 23:30 22.30852 116.30690 36085 ft 435 kts 270°
2026-05-07 23:30 22.30693 116.24196 36084 ft 435 kts 269°
2026-05-07 23:31 22.30531 116.17668 36083 ft 435 kts 269°
2026-05-07 23:31 22.30361 116.11148 36084 ft 435 kts 269°
2026-05-07 23:32 22.30195 116.04642 35873 ft 429 kts 269°
2026-05-07 23:32 22.30112 116.01403 34925 ft 435 kts 269°
2026-05-07 23:32 22.30027 115.98102 33839 ft 444 kts 269°
2026-05-07 23:33 22.29938 115.94766 33108 ft 443 kts 269°
2026-05-07 23:33 22.29849 115.91455 32529 ft 439 kts 269°
2026-05-07 23:33 22.29762 115.88175 31906 ft 435 kts 269°
2026-05-07 23:33 22.29674 115.84918 31319 ft 431 kts 269°
2026-05-07 23:34 22.29586 115.81693 30679 ft 427 kts 269°
2026-05-07 23:34 22.29501 115.78504 29938 ft 423 kts 269°
2026-05-07 23:34 22.29420 115.75387 29268 ft 418 kts 269°
2026-05-07 23:34 22.29338 115.72262 28511 ft 415 kts 269°
2026-05-07 23:35 22.29256 115.69168 27854 ft 410 kts 269°
2026-05-07 23:35 22.29174 115.66107 27127 ft 406 kts 269°
2026-05-07 23:35 22.29092 115.63079 26456 ft 401 kts 269°
2026-05-07 23:35 22.29011 115.60081 25763 ft 397 kts 269°
2026-05-07 23:36 22.28930 115.57117 25091 ft 393 kts 269°
2026-05-07 23:36 22.28848 115.54182 24412 ft 389 kts 269°
2026-05-07 23:36 22.28766 115.51281 23738 ft 385 kts 269°
2026-05-07 23:36 22.28687 115.48406 23072 ft 381 kts 269°
2026-05-07 23:37 22.28607 115.45568 22412 ft 377 kts 269°
2026-05-07 23:37 22.28527 115.42752 21777 ft 372 kts 269°
2026-05-07 23:37 22.28448 115.39973 21105 ft 369 kts 269°
2026-05-07 23:37 22.28369 115.37217 20477 ft 365 kts 268°
2026-05-07 23:38 22.28289 115.34492 19822 ft 362 kts 268°
2026-05-07 23:38 22.28211 115.31795 19199 ft 358 kts 268°
2026-05-07 23:38 22.28130 115.29124 18594 ft 353 kts 268°
2026-05-07 23:38 22.28049 115.26487 18046 ft 348 kts 268°
2026-05-07 23:39 22.27969 115.23908 17592 ft 340 kts 268°
2026-05-07 23:39 22.27891 115.21386 17187 ft 333 kts 268°
2026-05-07 23:39 22.27814 115.18913 16807 ft 327 kts 268°
2026-05-07 23:39 22.27738 115.16471 16451 ft 322 kts 268°
2026-05-07 23:40 22.27663 115.14078 16116 ft 317 kts 268°
2026-05-07 23:40 22.27589 115.11699 15777 ft 316 kts 268°
2026-05-07 23:40 22.27515 115.09359 15446 ft 315 kts 268°
2026-05-07 23:40 22.27440 115.06997 15111 ft 314 kts 268°
2026-05-07 23:41 22.27365 115.04636 14771 ft 314 kts 268°
2026-05-07 23:41 22.27290 115.02279 14429 ft 313 kts 268°
2026-05-07 23:41 22.27214 114.99931 14094 ft 312 kts 268°
2026-05-07 23:41 22.27138 114.97590 13761 ft 311 kts 268°
2026-05-07 23:42 22.27062 114.95254 13428 ft 310 kts 268°
2026-05-07 23:42 22.26987 114.92929 13096 ft 310 kts 268°
2026-05-07 23:42 22.26912 114.90609 12766 ft 309 kts 268°
2026-05-07 23:42 22.26836 114.88294 12432 ft 308 kts 268°
2026-05-07 23:43 22.26760 114.85985 12096 ft 307 kts 268°
2026-05-07 23:43 22.26683 114.83680 11760 ft 307 kts 268°
2026-05-07 23:43 22.26606 114.81383 11427 ft 306 kts 268°
2026-05-07 23:43 22.26419 114.79102 11087 ft 305 kts 257°
2026-05-07 23:44 22.25519 114.77056 10764 ft 303 kts 231°
2026-05-07 23:44 22.24061 114.75446 10499 ft 297 kts 223°
2026-05-07 23:44 22.22539 114.73944 10250 ft 296 kts 223°
2026-05-07 23:44 22.21048 114.72461 10072 ft 295 kts 223°
2026-05-07 23:45 22.19531 114.70928 9897 ft 295 kts 224°
2026-05-07 23:45 22.18040 114.69409 9759 ft 295 kts 224°
2026-05-07 23:45 22.16554 114.67889 9621 ft 294 kts 224°
2026-05-07 23:45 22.15090 114.66388 9507 ft 294 kts 224°
2026-05-07 23:46 22.13608 114.64869 9382 ft 293 kts 224°
2026-05-07 23:46 22.12131 114.63353 9257 ft 293 kts 224°
2026-05-07 23:46 22.10652 114.61837 9132 ft 293 kts 224°
2026-05-07 23:46 22.09177 114.60325 9013 ft 293 kts 224°
2026-05-07 23:47 22.07704 114.58815 8884 ft 292 kts 224°
2026-05-07 23:47 22.06245 114.57320 8760 ft 285 kts 224°
2026-05-07 23:47 22.04827 114.55868 8623 ft 278 kts 224°
2026-05-07 23:47 22.03445 114.54452 8493 ft 270 kts 224°
2026-05-07 23:48 22.02205 114.52956 8359 ft 268 kts 238°
2026-05-07 23:48 22.01386 114.51151 8235 ft 268 kts 248°
2026-05-07 23:48 22.00696 114.49289 8108 ft 268 kts 248°
2026-05-07 23:48 22.00007 114.47424 7986 ft 267 kts 248°
2026-05-07 23:49 21.99313 114.45567 7857 ft 267 kts 248°
2026-05-07 23:49 21.98615 114.43719 7722 ft 266 kts 248°
2026-05-07 23:49 21.97913 114.41872 7585 ft 266 kts 248°
2026-05-07 23:49 21.97211 114.40032 7450 ft 265 kts 248°
2026-05-07 23:50 21.96510 114.38199 7312 ft 264 kts 248°
2026-05-07 23:50 21.95809 114.36368 7173 ft 264 kts 248°
2026-05-07 23:50 21.95119 114.34566 7039 ft 263 kts 248°
2026-05-07 23:50 21.94420 114.32745 6912 ft 262 kts 248°
2026-05-07 23:51 21.93724 114.30932 6766 ft 262 kts 248°
2026-05-07 23:51 21.93028 114.29120 6625 ft 262 kts 248°
2026-05-07 23:51 21.92333 114.27307 6490 ft 261 kts 248°
2026-05-07 23:51 21.91640 114.25500 6356 ft 261 kts 248°
2026-05-07 23:52 21.90949 114.23700 6228 ft 260 kts 248°
2026-05-07 23:52 21.90257 114.21902 6080 ft 260 kts 247°
2026-05-07 23:52 21.89649 114.20075 5940 ft 259 kts 259°
2026-05-07 23:52 21.89725 114.18163 5805 ft 258 kts 288°
2026-05-07 23:53 21.90513 114.16431 5674 ft 258 kts 300°
2026-05-07 23:53 21.91426 114.14769 5549 ft 258 kts 300°
2026-05-07 23:53 21.92332 114.13105 5409 ft 257 kts 300°
2026-05-07 23:53 21.93221 114.11437 5279 ft 257 kts 300°
2026-05-07 23:54 21.94100 114.09766 5143 ft 256 kts 299°
2026-05-07 23:54 21.94974 114.08093 5004 ft 256 kts 299°
2026-05-07 23:54 21.95843 114.06426 4867 ft 255 kts 299°
2026-05-07 23:54 21.96707 114.04759 4732 ft 254 kts 299°
2026-05-07 23:55 21.97569 114.03095 4598 ft 254 kts 299°
2026-05-07 23:55 21.98430 114.01432 4467 ft 254 kts 299°
2026-05-07 23:55 21.99279 113.99790 4337 ft 253 kts 299°
2026-05-07 23:55 22.00136 113.98131 4208 ft 253 kts 299°
2026-05-07 23:56 22.00990 113.96478 4076 ft 252 kts 299°
2026-05-07 23:56 22.01841 113.94826 3941 ft 252 kts 299°
2026-05-07 23:56 22.02693 113.93176 3809 ft 251 kts 299°
2026-05-07 23:56 22.03539 113.91528 3680 ft 251 kts 299°
2026-05-07 23:57 22.04381 113.89883 3545 ft 250 kts 299°
2026-05-07 23:57 22.05225 113.88238 3408 ft 250 kts 299°
2026-05-07 23:57 22.06066 113.86601 3272 ft 250 kts 299°
2026-05-07 23:57 22.06909 113.84962 3146 ft 249 kts 299°
2026-05-07 23:58 22.07747 113.83332 3016 ft 245 kts 299°
2026-05-07 23:58 22.08551 113.81762 2939 ft 232 kts 299°
2026-05-07 23:58 22.09310 113.80284 2937 ft 227 kts 299°
2026-05-07 23:58 22.10076 113.78793 2958 ft 227 kts 300°
2026-05-07 23:59 22.11032 113.77451 2960 ft 227 kts 321°
2026-05-07 23:59 22.12391 113.76610 2731 ft 225 kts 336°
2026-05-07 23:59 22.13823 113.75936 2455 ft 224 kts 336°
2026-05-07 23:59 22.15252 113.75258 2277 ft 224 kts 336°
2026-05-08 00:00 22.16675 113.74568 2198 ft 224 kts 336°
2026-05-08 00:00 22.18096 113.73871 2255 ft 225 kts 336°
2026-05-08 00:00 22.19550 113.73270 2190 ft 224 kts 351°
2026-05-08 00:00 22.21058 113.73500 2074 ft 222 kts 27°
2026-05-08 00:01 22.22382 113.74319 1971 ft 214 kts 31°
2026-05-08 00:01 22.23617 113.75116 1939 ft 201 kts 31°
2026-05-08 00:01 22.24793 113.75894 1948 ft 189 kts 38°
2026-05-08 00:01 22.25509 113.76949 1975 ft 165 kts 66°
2026-05-08 00:02 22.25852 113.78073 1968 ft 155 kts 73°
2026-05-08 00:02 22.26196 113.79179 1975 ft 155 kts 71°
2026-05-08 00:02 22.26547 113.80279 1893 ft 155 kts 71°
2026-05-08 00:02 22.26901 113.81377 1724 ft 154 kts 71°
2026-05-08 00:03 22.27253 113.82468 1514 ft 151 kts 71°
2026-05-08 00:03 22.27576 113.83465 1312 ft 136 kts 70°
2026-05-08 00:03 22.27882 113.84411 1115 ft 135 kts 70°
2026-05-08 00:03 22.28190 113.85366 943 ft 135 kts 70°
2026-05-08 00:04 22.28499 113.86322 763 ft 134 kts 70°
2026-05-08 00:04 22.28806 113.87275 584 ft 134 kts 70°
2026-05-08 00:04 22.29113 113.88225 402 ft 134 kts 70°
2026-05-08 00:04 22.29420 113.89174 229 ft 134 kts 70°
2026-05-08 00:05 22.29725 113.90118 58 ft 133 kts 69°
2026-05-08 00:05 22.30011 113.90996 41 ft 103 kts 71°
2026-05-08 00:05 22.30148 113.91440 41 ft 42 kts 69°
2026-05-08 00:05 22.30241 113.91746 41 ft 43 kts 73°
2026-05-08 00:06 22.30320 113.91938 40 ft 28 kts 54°
2026-05-08 00:06 22.30460 113.92086 41 ft 26 kts 40°
2026-05-08 00:06 22.30578 113.92203 39 ft 24 kts 62°
2026-05-08 00:06 22.30638 113.92378 38 ft 26 kts 71°
2026-05-08 00:07 22.30698 113.92564 41 ft 28 kts 71°
2026-05-08 00:07 22.30742 113.92705 41 ft 12 kts 71°
2026-05-08 00:07 22.30803 113.92790 41 ft 20 kts 356°
2026-05-08 00:07 22.30920 113.92761 41 ft 16 kts 12°
2026-05-08 00:08 22.30993 113.92790 41 ft 11 kts
2026-05-08 00:08 22.31036 113.92742 41 ft 8 kts 295°
2026-05-08 00:08 22.31050 113.92708 41 ft 0 kts 297°